ONEWEB-0093, 45444

Orbit data source: Space-Track

ONEWEB-0093, 45444 is a payload satellite owned by One Web (UK) in LEO that was launched on Sat, 21 Mar 2020 UTC via a SOYUZ-2-1B launch vehicle from the Tyuratam Missile And Space Complex (TTMTR). Payload-class satellites include a variety of spacecraft equipped with specific instruments for various scientific and technological missions. These include communications satellites like Starlink; space stations such as the ISS; scientific satellites like the Hubble; Earth observation satellites from companies like Planet Labs, Umbra, and HawkEye 360; GPS; miniature CubeSats for education and research; and military/defense satellites.

Loading next visibility...
Identifier
45444, 2020-020W
Orbit
LEO
Country
Flag of UKUK
Related business
Manufacturer
One Web
Mission
Operational Commercial Communications
Bus & Motor
ARROW, Unknown motor
Mass
148 kg wet, ~140 kg dry
Launch date (UTC)
2020-03-21 (6 years ago)
Launch vehicle
SOYUZ-2-1B
Launch site
Tyuratam Missile And Space Complex (TTMTR)
Object type
Payload
Rocket body
Debris
Shape & HBR
Trap Box + 2 Pan, 6.7 m
Radar Cross Section
3.464 m², Large (>1 m²)

Expand to show TLE details & history
Last TLE update: 9 hours ago

TLE from 9 hours ago
0 ONEWEB-0093
1 45444U 20020W   26254.76374994  .00000477  00000-0  13100-2 0  9998
2 45444  87.8970   3.8564 0002086 100.8405 259.2958 13.11415627314023
Epoch: 2026-09-11T18:19Z
TLE epoch observation values (Epoch: 2026-09-11T18:19:47.994Z)
Latitude
-0.00002°
Longitude
98.12399°
Altitude
1,220.872 km
Speed
7.244 km/s
True Right ascension
00h 15m 25s
True Declination
0° 00' 00"
Sunlit
Object was in full shadow at epoch
Visualization orbit readout
Latitude
Unknown
Longitude
Unknown
Altitude
Unknown
Speed
Unknown
Apparent Right ascension
Unknown
Apparent Declination
Unknown
Sunlit
N/A
Visualization observer readout
Local Sidereal Time
20:05:47
Azimuth
Unknown
Elevation
Unknown
Doppler factor
Unknown
Orbital elements
Apogee altitude
1,216.39 km
Perigee altitude
1,213.222 km
Semi-major axis
7,592.943 km
Eccentricity
0.00021
Inclination
87.897°
RAAN
3.8564°
Arg. of periapsis
100.8405°
True anomaly
259.27231°
Mean anomaly
259.2958°
Eccentric anomaly
259.28406°
Mean motion
3.28041 °/min
Orbital period
109.74 mins
BSTAR
0.00131
Loading maneuver chart data...
Computing Atmospheric mass density...
Loading historical data...
Loading historical data...
Loading historical data...
Loading historical data...
Loading historical data...
Loading historical data...
Loading historical data...

Documentation

Showing up to 5 results
|